Starlink 33885

operational
NORAD ID: 63886 Int'l Des: 2025-094 Owner: SPXS Country: US Constellation: starlink
LEOCIRCULAR

Starlink 33885について

説明を読み込み中...

リアルタイム位置

3D地球を読み込み中...

次回通過

高度履歴

Altitude vs Time

uPlot chart will show altitude changes over time

軌道要素

1 63886U 25094Y 26062.59637206 .00004149 00000-0 35524-3 0 9995
2 63886 69.9998 249.6862 0002857 267.1208 92.9624 14.98336244 46295
Epoch: Mar 3, 2026 • Age: 33 hours

現在のステータス

高度 576.2 km
速度 7.58 km/s
衛星直下点 29.98°N, 124.66°E
打ち上げ日 May 10, 2025
運用期間 0.8 years
タイプ internet

技術仕様

分類 Payload
質量 575.00 kg
乾燥質量 530.00 kg
総質量 575.00 kg
長さ 0.30 m
直径 4.10 m
スパン 29.00 m
形状 Box + pan
製造者 SPXS
バスタイプ Starlink V2MO
フェーズステータス In Orbit
所有者/国 SPXS/US

大規模コンステレーション

Loading constellations...